Regional Weather Roundup
Issued by NWS San Angelo, TX

Home | Current Version | Previous Version | Graphics & Text | Print | Product List | Glossary Off
Versions: 1 2 3 4 5 6 7 8 9 10 11 12 13 14 15 16 17 18 19 20 21 22 23 24 25 26 27 28 29 30 31 32 33 34 35 36 37 38 39 40 41 42 43 44 45 46 47 48 49 50

000
ASUS44 KSJT 301610
RWRSJT
WEST CENTRAL TEXAS REGIONAL WEATHER ROUNDUP
NATIONAL WEATHER SERVICE SAN ANGELO TX
1100 AM CDT MON MAR 30 2015

NOTE: "FAIR" INDICATES FEW OR NO CLOUDS BELOW 12,000 FEET WITH NO
SIGNIFICANT WEATHER AND/OR OBSTRUCTIONS TO VISIBILITY.

TXZ049-054-064>066-071>073-076>078-098-099-113-114-127-128-139-140-
154-155-168>170-301700
...LOCATIONS ACROSS WEST CENTRAL TEXAS...

CITY           SKY/WX    TMP DP  RH WIND       PRES   REMARKS
SAN ANGELO     PTSUNNY   68  50  52 E5        30.19S
ABILENE        CLOUDY    63  46  54 N6        30.21R
DYESS AFB      CLOUDY    62  46  56 N6        30.20R
JUNCTION       MOSUNNY   70  61  73 CALM      30.19R
SWEETWATER     CLOUDY    62  44  50 NE6       30.25S
BROWNWOOD      MOSUNNY   68  54  60 CALM      30.18S
COLEMAN        MOSUNNY   68  54  60 N6        30.19S
SONORA         PTSUNNY   70  59  68 CALM      30.24R
OZONA          FAIR      70  54  56 S3        30.24R
BRADY          SUNNY     73  52  46 W3        30.18R
$$

TEXAS PANHANDLE/OKLAHOMA PANHANDLE

CITY           SKY/WX    TMP DP  RH WIND       PRES   REMARKS
AMARILLO       PTSUNNY   61  33  35 S14       30.25R
BORGER         MOSUNNY   66  33  29 S14       30.22F
CANADIAN       SUNNY     69  34  27 S16       30.20F
DALHART        CLOUDY    66  32  28 SW25G33   30.21F
DUMAS          FAIR      63  32  31 S21       30.22R
GUYMON         NOT AVBL
HEREFORD       PTSUNNY   63  37  39 S14       30.26S
PAMPA          MOSUNNY   66  32  27 S14G21    30.23F
PERRYTON       MOSUNNY   66  33  30 S20       30.19F
$$

SOUTHERN PANHANDLE/SOUTH PLAINS/ROLLING PLAINS

CITY           SKY/WX    TMP DP  RH WIND       PRES   REMARKS
LUBBOCK        CLOUDY    62  37  39 SE12      30.25R
SNYDER         CLOUDY    62  42  47 NE12      30.23R
CHILDRESS      SUNNY     66  36  32 S7        30.24F
SEMINOLE       CLOUDY    61  38  43 CALM      30.27R
$$

PERMIAN BASIN

CITY           SKY/WX    TMP DP  RH WIND       PRES   REMARKS
MIDLAND        CLOUDY    63  44  50 E6        30.24R
ODESSA         CLOUDY    62  43  49 MISG      30.24S
WINK           CLOUDY    65  43  44 E8        30.22S
$$

FAR WEST/SOUTHWEST MOUNTAINS/TRANS PECOS

CITY           SKY/WX    TMP DP  RH WIND       PRES   REMARKS
ALPINE         CLOUDY    60  42  51 E3        30.34R
DRYDEN           N/A     67  61  81 NE8       30.20R
EL PASO        CLOUDY    68  34  28 S6        30.19R
FORT STOCKTON  CLOUDY    63  46  54 SW6       30.24R
GUADALUPE PASS PTSUNNY   59  34  39 E29       30.28R
MARFA          CLOUDY    64  43  45 NE9       30.29R
PECOS          PTSUNNY   63  43  47 E6        30.24R
$$

DALLAS/FORT WORTH METROPLEX

CITY           SKY/WX    TMP DP  RH WIND       PRES   REMARKS
DFW AIRPORT    CLOUDY    67  61  81 SE6       30.16S
FTW MEACHAM    CLOUDY    69  61  75 E3        30.16R
DAL-EXECUTIVE  CLOUDY    67  62  84 SE6       30.17R
GRAND PRAIRIE  PTSUNNY   66  63  88 E7        30.18R
ADDISON        CLOUDY    68  61  77 SE7       30.18R
MESQUITE       CLOUDY    66  63  88 SE7       30.19R HAZE
LANCASTER      CLOUDY    66  61  83 SE3       30.19R
$$

NORTH CENTRAL TEXAS

CITY           SKY/WX    TMP DP  RH WIND       PRES   REMARKS
SHRMAN/DENISON PTSUNNY   70  58  65 SE9       30.20S
GAINESVILLE    MOSUNNY   69  58  68 E10G16    30.19F
BRIDGEPORT     MOSUNNY   68  58  71 SE5       30.19R
DENTON         PTSUNNY   70  59  68 E8        30.17S
WAXAHACHIE     CLOUDY    66  64  91 SE6       30.19R
GRANBURY         N/A     68  61  76 NE5       30.18R
$$

WESTERN NORTH TEXAS

CITY           SKY/WX    TMP DP  RH WIND       PRES   REMARKS
WICHITA FALLS  MOSUNNY   67  46  47 NE9       30.21R
VERNON         SUNNY     68  34  29 SE7       30.23F
BRECKENRIDGE   PTSUNNY   69  49  49 NE7       30.19R
COMANCHE       PTSUNNY   66  56  70 CALM      30.18R
$$

CENTRAL AND SOUTH CENTRAL TEXAS

CITY           SKY/WX    TMP DP  RH WIND       PRES   REMARKS
AUSTIN/BERGSTM CLOUDY    71  64  78 S12       30.18R
WACO           CLOUDY    69  62  78 S10       30.17R
HILLSBORO      CLOUDY    69  62  78 S9        30.17S
TEMPLE         CLOUDY    70  59  68 S14       30.17R
KILLEEN-GRAY   CLOUDY    69  61  77 SW8       30.17R
FORT HOOD      CLOUDY    70  62  75 SW12      30.17R
GEORGETOWN     CLOUDY    72  61  68 S10       30.17R
LAGO VISTA     CLOUDY    68  61  78 S6        30.20R
SAN MARCOS     CLOUDY    70  63  78 S8        30.20R
NEW BRAUNFELS  CLOUDY    71  64  78 S8        30.18R
RANDOLPH AFB   CLOUDY    68  64  88 S7        30.20R
SAN ANTONIO    CLOUDY    69  63  81 SE8       30.20R
STINSON        CLOUDY    70  63  78 S6        30.18R
PLEASANTON     NOT AVBL
LA GRANGE      CLOUDY    73  67  81 S9        30.18R
GIDDINGS       PTSUNNY   71  64  79 S7        30.23R
$$

EAST TEXAS

CITY           SKY/WX    TMP DP  RH WIND       PRES   REMARKS
PARIS          NOT AVBL
CLARKSVILLE    NOT AVBL
TYLER          CLOUDY    68  63  84 S8        30.20R
LONGVIEW       CLOUDY    70  62  76 SW10      30.20R
PALESTINE      CLOUDY    72  64  74 SW8       30.21R
NACOGDOCHES    CLOUDY    72  61  68 SW7       30.22R
$$

TEXAS HILL COUNTRY AND EDWARDS PLATEAU

CITY           SKY/WX    TMP DP  RH WIND       PRES   REMARKS
LLANO          CLOUDY    70  63  78 CALM      30.22R
HORSESHOE BAY  CLOUDY    69  62  78 CALM      30.19R
KERRVILLE      CLOUDY    64  61  91 S8        30.21R
FREDERICKSBRG  CLOUDY    64  60  87 SW7       30.20R
ROCKSPRINGS    NOT AVBL
HONDO          CLOUDY    67  62  84 MISG      30.21R
UVALDE         CLOUDY    67  62  85 SE7       30.20R
DEL RIO        CLOUDY    67  61  81 E5        30.17R
$$

SOUTHEAST TEXAS

CITY           SKY/WX    TMP DP  RH WIND       PRES   REMARKS
COLLEGE STN    PTSUNNY   72  64  76 S13G21    30.19R
CALDWELL       CLOUDY    70  66  88 S9        30.22R
CROCKETT       PTSUNNY   75  66  73 S10       30.23R
BRENHAM        MOSUNNY   74  67  79 S8        30.21S
HUNTSVILLE     PTSUNNY   72  62  71 SW9       30.21R
CONROE         CLOUDY    73  59  61 S10       30.22R
HOUSTON BUSH   PTSUNNY   74  62  66 VRB7      30.22R
HOUSTON HOBBY  MOSUNNY   74  64  71 S9        30.22R
PERLAND        PTSUNNY   76  62  62 S10       30.24R
WHARTON        PTSUNNY   73  66  78 S14       30.22R
$$

THE UPPER TEXAS COAST

CITY           SKY/WX    TMP DP  RH WIND       PRES   REMARKS
ORANGE         MOSUNNY   75  62  62 S8        30.25S
PORT ARTHUR    PTSUNNY   74  62  66 SW9       30.23S
GALVESTON      SUNNY     73  66  78 S8        30.24R
ANGLETON       MOSUNNY   73  63  70 S14       30.23R
BAY CITY       CLOUDY    75  67  76 S10G17    30.22R
$$

TEXAS COASTAL BEND, RIO GRANDE PLAINS DEEP SOUTH TEXAS

CITY           SKY/WX    TMP DP  RH WIND       PRES   REMARKS
VICTORIA       CLOUDY    74  67  78 S15       30.20R
BEEVILLE       CLOUDY    73  67  81 S14       30.18R
ROCKPORT       CLOUDY    75  67  76 SE9       30.19R
PORT ARANSAS   CLOUDY    72  67  85 SE8       30.19R
PORT LAVACA    NOT AVBL
CORPUS CHRISTI PTSUNNY   73  68  84 S16       30.18R
KINGSVILLE NAS PTSUNNY   75  69  81 S13       30.16R
COTULLA        MOSUNNY   76  63  64 S9        30.16S
LAREDO         MOSUNNY   75  64  68 SE7       30.16R
BROWNSVILLE    CLOUDY    76  68  76 S21G28    30.16R
PORT ISABEL    PTSUNNY   77  68  73 S21       30.15R
HEBBRONVILLE     N/A    N/A N/A N/A SE18      30.16R
MCALLEN        PTSUNNY   80  67  64 SE21G29   30.14S
WESLACO        CLOUDY    76  67  73 S15       30.14S
FALFURRIAS     CLOUDY    75  65  72 S10       30.15R
EDINBURG       PTSUNNY   80  66  62 SE16G22   30.15R
$$


USA.gov is the U.S. government's official web portal to all federal, state and local government web resources and services.